Location: Zagreb
(45.8000°N, 16.0000°E)
Time: 17:52:06
(UTC+01:00)

Vanguard 2 Rocket - Pass Details

Date: 21 December 2025
Orbit: 553 x 3287 km, 32.9° (Epoch: 17 January)

Event Time Altitude Azimuth Distance (km) Brightness Sun altitude
Rises 04:52:03 0° 213° (SSW) 6,316 10.9 -27.1°
Reaches altitude 10° 04:56:28 10° 205° (SSW) 5,610 10.7 -26.4°
Maximum altitude 05:11:49 35° 148° (SSE) 4,439 10.6 -23.7°
Drops below altitude 10° 05:28:07 10° 92° (E) 5,985 12.2 -20.9°
Sets 05:32:57 0° 85° (E) 6,773 12.7 -20.1°
